Tracking 33747 objects as of 12-Apr-2026
HD Live streaming from Space Station
objects crossing your sky now

STARLINK-36812

Track STARLINK-36812 now!
10-day predictions
STARLINK-36812 is classified as:


NORAD ID: 67968
Int'l Code: 2026-038H
Perigee: 471.2 km
Apogee: 474.3 km
Inclination: 97.3 °
Period: 93.9 minutes
Semi major axis: 6843 km
RCS: Unknown
Launch date: February 25, 2026
Source: United States (US)
Launch site: AIR FORCE WESTERN TEST RANGE (AFWTR)
Your satellite tracking list
Your tracking list is empty




NASA's NSSDC Master Catalog

Two Line Element Set (TLE):
1 67968U 26038H   26101.74326563  .00023833  00000-0  73858-3 0  9994
2 67968  97.2869 112.3665 0002232  93.9059 266.2439 15.33428006  8302
Source of the keplerian elements: AFSPC